Date,TemperatureHighF,TemperatureAvgF,TemperatureLowF,DewpointHighF,DewpointAvgF,DewpointLowF,HumidityHigh,HumidityAvg,HumidityLow,PressureMaxIn,PressureMinIn,WindSpeedMaxMPH,WindSpeedAvgMPH,GustSpeedMaxMPH,PrecipitationSumIn
2013-1-1,24,18,13,18,15,10,92,86,70,0.00,40.00,26,13,50,0.00
2013-1-2,30,15,12,10,4,-22,88,64,9,0.00,40.00,30,21,44,0.00
2013-1-3,43,38,26,1,-12,-35,19,12,4,0.00,40.00,18,12,27,0.00
2013-1-4,39,30,25,19,12,-9,76,51,12,0.00,40.00,33,25,54,0.00
2013-1-5,33,26,21,19,13,-4,76,60,20,0.00,40.00,24,18,44,0.00
2013-1-6,34,30,23,18,10,-6,64,45,18,0.00,40.00,32,25,54,0.00
2013-1-7,31,26,22,27,18,13,98,74,55,0.00,40.00,32,21,55,0.00
2013-1-8,30,26,23,26,17,8,98,72,49,0.00,40.00,32,23,62,0.00
2013-1-9,42,36,30,23,18,12,68,48,32,0.00,40.00,34,27,58,0.00
2013-1-10,39,19,0,25,10,-4,96,73,36,0.00,40.00,22,10,35,0.00
2013-1-11,0,-4,-6,-4,-9,-11,81,79,78,0.00,40.00,11,4,16,0.00
2013-1-12,6,2,-2,2,-3,-7,83,81,80,0.00,40.00,4,1,9,0.00
2013-1-13,9,3,0,5,-1,-5,85,82,80,0.00,40.00,6,2,8,0.00
2013-1-14,18,7,3,16,4,-1,90,84,81,0.00,40.00,7,4,15,0.00
2013-1-15,28,24,18,25,21,16,96,89,67,0.00,40.00,32,14,53,0.00
2013-1-16,32,30,26,20,16,12,69,57,43,0.00,40.00,33,25,63,0.00
2013-1-17,38,33,28,19,14,11,67,46,36,0.00,40.00,36,25,68,0.00
2013-1-18,38,34,31,13,10,6,45,36,30,0.00,40.00,38,29,68,0.00
2013-1-19,31,27,19,22,15,7,95,63,37,0.00,40.00,34,17,53,0.00
2013-1-20,24,11,6,16,7,2,89,85,63,0.00,40.00,34,9,53,0.00
2013-1-21,34,27,15,14,9,3,89,51,27,0.00,40.00,26,20,39,0.00
2013-1-22,36,33,30,4,1,-4,32,25,18,0.00,40.00,25,18,36,0.00
2013-1-23,41,36,32,14,2,-2,36,24,19,0.00,40.00,27,17,40,0.00
2013-1-24,40,32,26,22,16,10,70,52,30,0.00,40.00,30,23,59,0.00
2013-1-25,39,34,30,24,19,8,61,55,39,0.00,40.00,27,21,46,0.00
2013-1-26,45,35,27,28,23,-100,99,65,38,0.00,40.00,22,15,30,0.00
2013-1-27,25,20,19,24,14,-100,97,87,78,0.00,40.00,7,0,12,0.00
2013-1-28,25,19,16,12,9,7,78,66,52,0.00,40.00,16,10,23,0.00
2013-1-29,16,4,-7,14,0,-12,90,83,77,0.00,40.00,15,9,24,0.00
2013-1-30,19,14,7,17,11,3,92,88,84,0.00,40.00,23,15,37,0.00
2013-1-31,27,23,10,27,22,7,99,95,86,0.00,40.00,22,13,36,0.00
2013-2-1,27,24,22,27,19,-100,99,94,96,0.00,40.00,22,7,35,0.00
2013-2-2,32,27,22,23,20,16,94,77,53,0.00,40.00,23,17,43,0.00
2013-2-3,34,31,27,20,14,6,66,50,33,0.00,40.00,30,22,54,0.00
2013-2-4,32,30,27,22,19,15,76,65,56,0.00,40.00,29,24,52,0.00
2013-2-5,36,31,26,26,20,15,82,66,45,0.00,40.00,25,18,42,0.00
2013-2-6,32,28,24,20,15,12,71,58,45,0.00,40.00,24,19,46,0.00
2013-2-7,33,29,23,12,8,6,59,42,31,0.00,40.00,19,14,31,0.00
2013-2-8,36,28,24,19,14,8,75,55,40,0.00,40.00,14,9,20,0.00
2013-2-9,33,24,19,18,15,12,93,70,46,0.00,40.00,17,9,28,0.00
2013-2-10,18,11,8,16,8,4,91,86,85,0.00,40.00,13,4,24,0.00
2013-2-11,28,20,8,21,13,4,88,77,60,0.00,40.00,17,4,32,0.00
2013-2-12,30,25,20,21,17,12,79,72,66,0.00,40.00,32,22,56,0.00
2013-2-13,29,25,14,24,19,11,95,79,60,0.00,40.00,33,23,56,0.00
2013-2-14,19,14,11,16,12,8,90,88,86,0.00,40.00,19,5,34,0.00
2013-2-15,30,24,16,21,17,11,90,74,57,0.00,40.00,26,20,45,0.00
2013-2-16,42,34,29,24,21,18,76,59,45,0.00,40.00,24,20,43,0.00
2013-2-17,34,23,18,27,20,14,98,87,53,0.00,40.00,32,17,52,0.00
2013-2-18,24,16,12,23,14,9,97,90,88,0.00,40.00,0,0,0,0.03
2013-2-19,23,17,12,18,13,9,89,84,70,0.00,40.00,4,0,6,0.01
2013-2-20,29,20,18,22,17,16,92,87,71,0.00,40.00,7,5,12,0.00
2013-2-21,28,21,18,25,12,6,95,72,49,0.00,40.00,15,8,22,0.00
2013-2-22,28,23,16,15,12,9,80,63,52,0.00,40.00,28,18,40,0.00
2013-2-23,29,25,19,19,16,11,94,68,55,0.00,40.00,26,17,42,0.00
2013-2-24,28,21,16,17,13,8,92,73,44,0.00,40.00,21,11,29,0.00
2013-2-25,32,26,22,19,14,10,80,61,48,0.00,40.00,24,17,39,0.00
2013-2-26,22,19,18,18,15,11,92,85,64,0.00,40.00,23,13,40,0.00
2013-2-27,30,23,15,17,14,12,91,70,48,0.00,40.00,18,9,31,0.00
2013-2-28,31,25,20,19,14,9,93,64,52,0.00,40.00,22,15,35,0.00
2013-3-1,43,36,27,29,24,14,72,62,54,0.00,40.00,28,23,50,0.00
2013-3-2,46,40,36,25,21,17,59,46,37,0.00,40.00,26,19,47,0.00
2013-3-3,38,27,11,25,18,5,96,71,46,0.00,40.00,33,21,56,0.00
2013-3-4,9,7,5,5,3,1,85,84,83,0.00,40.00,28,13,57,0.00
2013-3-5,28,17,7,25,14,3,90,86,76,0.00,40.00,16,9,20,0.00
2013-3-6,34,31,25,30,16,5,99,57,36,0.00,40.00,24,13,40,0.00
2013-3-7,32,28,23,28,20,13,99,76,47,0.00,40.00,23,13,44,0.00
2013-3-8,40,29,25,26,16,7,71,57,45,0.00,40.00,18,9,27,0.00
2013-3-9,28,24,22,17,14,7,76,65,43,0.00,40.00,21,18,40,0.00
2013-3-10,39,33,28,20,15,13,68,48,38,0.00,40.00,26,17,43,0.00
2013-3-11,29,20,15,22,17,12,92,87,68,0.00,40.00,21,12,41,0.00
2013-3-12,35,23,13,31,19,10,99,85,62,0.00,40.00,27,13,48,0.00
2013-3-13,48,40,34,28,24,21,68,54,39,0.00,40.00,31,23,48,0.00
2013-3-14,47,43,39,26,24,21,53,46,38,0.00,40.00,23,17,40,0.00
2013-3-15,46,38,30,25,22,19,76,54,36,0.00,40.00,32,20,62,0.00
2013-3-16,37,30,27,29,24,20,98,78,50,0.00,40.00,20,12,26,0.00
2013-3-17,33,17,1,28,13,-3,99,87,62,0.00,40.00,25,12,48,0.00
2013-3-18,21,13,1,19,10,-3,92,88,82,0.00,40.00,13,8,25,0.00
2013-3-19,25,17,10,22,13,7,90,85,64,0.00,40.00,17,5,23,0.00
2013-3-20,44,37,25,25,14,-8,56,41,19,0.00,40.00,27,20,41,0.00
2013-3-21,35,27,20,30,11,3,99,53,30,0.00,40.00,31,18,49,0.00
2013-3-22,19,13,8,17,10,3,92,87,75,0.00,40.00,16,10,28,0.00
2013-3-23,14,7,0,11,3,-4,87,84,81,0.00,40.00,16,12,30,0.00
2013-3-24,19,10,2,15,5,-2,85,83,74,0.00,40.00,23,12,34,0.00
2013-3-25,37,27,14,10,4,-1,79,38,26,0.00,40.00,12,8,20,0.00
2013-3-26,41,32,25,13,9,3,55,38,30,0.00,40.00,17,7,26,0.00
2013-3-27,45,36,27,19,14,11,53,42,32,0.00,40.00,16,9,25,0.00
2013-3-28,47,42,38,27,24,21,61,49,38,0.00,40.00,9,4,14,0.00
2013-3-29,42,38,33,28,25,22,79,61,49,0.00,40.00,15,11,25,0.00
2013-3-30,41,35,31,24,20,15,72,55,36,0.00,40.00,17,13,37,0.00
2013-3-31,38,34,31,25,20,16,67,57,42,0.00,40.00,22,14,38,0.00
2013-4-1,45,35,29,21,18,16,69,51,37,0.00,40.00,21,9,31,0.00
2013-4-2,58,46,29,22,17,12,69,33,19,0.00,40.00,20,9,35,0.00
2013-4-3,46,39,32,28,25,19,67,58,36,0.00,40.00,23,15,38,0.00
2013-4-4,46,36,24,29,25,20,85,65,46,0.00,40.00,23,14,33,0.00
2013-4-5,50,43,37,31,26,20,68,52,34,0.00,40.00,24,18,40,0.00
2013-4-6,47,38,33,30,24,20,69,57,40,0.00,40.00,25,16,45,0.00
2013-4-7,38,32,18,33,23,16,99,73,52,0.00,40.00,27,15,45,0.03
2013-4-8,18,13,7,16,10,3,92,88,85,0.00,40.00,6,0,15,0.01
2013-4-9,29,14,6,26,9,-10,93,80,34,0.00,40.00,3,0,11,0.11
2013-4-10,40,35,18,29,21,-13,75,58,22,0.00,40.00,19,10,31,0.10
2013-4-11,36,31,27,33,30,27,99,94,73,0.00,40.00,25,15,45,0.02
2013-4-12,32,26,23,32,18,-100,99,87,75,0.00,40.00,23,9,36,0.07
2013-4-13,34,30,23,29,20,6,99,68,38,0.00,40.00,25,17,41,0.01
2013-4-14,23,17,10,23,15,7,98,92,87,0.00,40.00,16,4,32,0.00
2013-4-15,21,14,8,20,11,5,95,90,86,0.00,40.00,0,0,4,0.00
2013-4-16,21,14,10,20,11,7,95,88,86,0.00,40.00,0,0,0,0.00
2013-4-17,22,15,10,20,13,7,96,90,87,0.00,40.00,0,0,0,0.00
2013-4-18,35,26,15,22,18,13,91,72,51,0.00,40.00,20,10,40,0.08
2013-4-19,37,32,27,34,25,18,98,75,52,0.00,40.00,16,12,29,0.03
2013-4-20,43,34,32,33,29,24,99,81,57,0.00,40.00,25,17,38,0.01
2013-4-21,28,18,14,28,16,12,99,93,91,0.00,40.00,17,2,22,0.00
2013-4-22,27,18,11,27,16,8,98,92,88,0.00,40.00,0,0,0,0.13
2013-4-23,33,24,15,23,16,11,92,74,50,0.00,40.00,21,7,36,0.08
2013-4-24,42,29,20,33,23,15,99,81,38,0.00,40.00,22,11,37,0.01
2013-4-25,48,40,32,21,18,12,50,40,32,0.00,40.00,23,18,40,0.01
2013-4-26,58,47,37,26,22,19,50,38,24,0.00,40.00,21,14,38,0.00
2013-4-27,55,49,44,25,21,16,42,34,25,0.00,40.00,29,23,51,0.00
2013-4-28,51,43,37,32,27,18,77,53,38,0.00,40.00,31,15,55,0.00
2013-4-29,46,38,22,22,17,8,96,43,25,0.00,40.00,36,23,68,0.00
2013-4-30,23,20,16,22,12,-100,96,86,76,0.00,40.00,21,9,42,0.00
2013-5-1,35,26,16,18,12,8,92,58,35,0.00,40.00,14,6,23,0.00
2013-5-2,53,40,26,16,12,9,60,35,20,0.00,40.00,15,9,23,0.00
2013-5-3,45,38,33,37,27,11,99,70,26,0.00,40.00,18,11,29,0.22
2013-5-4,42,36,32,39,32,23,100,84,54,0.00,40.00,17,10,31,0.31
2013-5-5,54,44,35,25,22,18,56,41,31,0.00,40.00,13,9,22,0.02
2013-5-6,62,52,42,26,23,17,38,32,24,0.00,40.00,16,9,28,0.00
2013-5-7,60,54,46,32,27,21,56,36,25,0.00,40.00,23,14,37,0.00
2013-5-8,58,47,41,34,30,23,69,52,37,0.00,40.00,22,12,33,0.00
2013-5-9,63,52,41,38,33,30,68,50,33,0.00,40.00,17,7,24,0.00
2013-5-10,52,47,38,33,24,-100,70,44,32,0.00,40.00,25,12,41,0.00
2013-5-11,65,51,36,32,24,14,43,35,29,0.00,40.00,14,9,23,0.00
2013-5-12,73,64,55,37,34,29,45,34,22,0.00,40.00,18,14,43,0.00
2013-5-13,76,63,52,42,37,30,68,39,24,0.00,40.00,29,15,53,0.00
2013-5-14,58,47,40,39,22,13,77,39,21,0.00,40.00,31,20,52,0.00
2013-5-15,61,47,39,26,19,14,37,32,26,0.00,40.00,15,9,23,0.00
2013-5-16,55,42,37,41,12,-100,96,64,29,0.00,40.00,12,8,20,0.61
2013-5-17,47,44,41,44,34,-100,99,83,64,0.00,40.00,14,6,21,0.04
2013-5-18,44,42,41,44,42,41,100,100,99,0.00,40.00,14,8,20,0.10
2013-5-19,43,40,37,43,40,37,100,100,100,0.00,40.00,18,13,32,1.78
2013-5-20,52,44,39,44,33,10,100,75,23,0.00,40.00,18,12,34,0.48
2013-5-21,54,47,38,39,22,6,100,41,22,0.00,40.00,22,10,44,0.01
2013-5-22,44,39,34,43,38,34,100,97,81,0.00,40.00,31,26,59,0.07
2013-5-23,44,40,37,44,40,37,100,100,99,0.00,40.00,30,19,60,0.63
2013-5-24,53,43,32,41,30,21,100,69,28,0.00,40.00,27,16,41,0.76
2013-5-25,55,48,39,37,31,24,68,52,41,0.00,40.00,13,8,22,0.01
2013-5-26,60,50,41,45,38,31,100,65,48,0.00,40.00,16,9,26,0.54
2013-5-27,49,44,40,47,41,34,100,89,72,0.00,40.00,19,12,52,0.73
2013-5-28,52,45,40,44,36,30,100,71,56,0.00,40.00,17,9,28,0.20
2013-5-29,44,42,41,43,40,34,100,94,72,0.00,40.00,12,6,16,0.65
2013-5-30,42,39,36,42,39,36,100,100,100,0.00,40.00,27,17,53,3.23
2013-5-31,38,37,34,38,37,34,100,100,100,0.00,40.00,33,25,62,2.77
2013-6-1,55,46,37,44,39,34,100,79,47,0.00,40.00,21,9,35,0.04
2013-6-2,54,47,41,45,39,32,100,77,56,0.00,40.00,17,12,30,1.71
2013-6-3,41,35,31,41,35,31,100,100,100,0.00,40.00,23,11,47,2.65
2013-6-4,46,34,31,40,33,24,100,94,60,0.00,40.00,20,3,17,0.36
2013-6-5,61,49,36,37,30,23,69,50,32,0.00,40.00,28,7,169,0.06
2013-6-6,65,55,50,44,40,31,76,58,45,0.00,40.00,14,5,147,0.00
2013-6-7,69,59,50,45,41,37,70,52,38,0.00,40.00,23,12,49,0.00
2013-6-8,57,50,43,43,39,34,99,68,44,0.00,40.00,32,16,62,0.00
2013-6-9,70,57,48,42,35,31,79,45,24,0.00,40.00,23,13,35,0.00
2013-6-10,65,57,48,44,37,30,75,50,28,0.00,40.00,18,8,34,0.00
2013-6-11,61,50,45,52,47,43,100,89,64,0.00,40.00,22,11,40,0.92
2013-6-12,61,52,46,55,50,45,100,94,71,0.00,40.00,23,13,38,0.41
2013-6-13,59,49,41,53,48,41,100,96,56,0.00,40.00,22,12,38,0.17
2013-6-14,52,44,37,42,34,27,100,73,45,0.00,40.00,25,17,44,0.17
2013-6-15,60,50,40,34,29,25,60,46,26,0.00,40.00,26,15,47,0.00
2013-6-16,59,54,50,42,39,34,65,57,50,0.00,40.00,11,8,24,0.00
2013-6-17,67,57,48,47,41,34,73,56,40,0.00,40.00,20,9,32,0.00
2013-6-18,74,63,53,55,47,36,75,57,36,0.00,40.00,20,15,37,0.00
2013-6-19,68,60,43,52,45,36,99,59,36,0.00,40.00,33,16,74,0.04
2013-6-20,54,46,40,36,30,27,73,56,36,0.00,40.00,36,24,55,0.04
2013-6-22,51,46,41,45,42,38,99,87,61,0.00,40.00,12,5,26,0.85
2013-6-23,64,53,42,41,37,34,88,58,36,0.00,40.00,14,10,21,0.01
2013-6-24,69,62,52,51,45,36,83,55,43,0.00,40.00,22,14,38,0.19
2013-6-25,66,57,47,48,43,39,99,63,38,0.00,40.00,21,12,33,0.19
2013-6-27,69,60,53,44,41,37,64,49,36,0.00,40.00,21,10,38,0.00
2013-6-28,72,68,61,50,46,43,68,45,39,0.00,40.00,13,8,26,0.00
2013-6-29,79,70,59,54,51,45,81,52,41,0.00,40.00,15,7,25,0.00
2013-6-30,79,68,60,57,52,46,80,56,42,0.00,40.00,14,8,23,0.00
2013-7-1,78,71,60,56,50,44,66,50,30,0.00,40.00,14,8,24,0.00
2013-7-2,83,78,72,52,50,48,49,38,32,0.00,40.00,12,6,15,0.00
2013-7-3,83,75,64,58,48,40,80,40,25,0.00,40.00,19,11,29,0.00
2013-7-4,72,63,53,66,57,49,100,82,51,0.00,40.00,16,8,44,1.15
2013-7-5,67,60,51,53,49,46,99,67,53,0.00,40.00,18,11,30,0.47
2013-7-6,62,53,45,48,45,39,99,75,60,0.00,40.00,17,12,25,0.47
2013-7-7,70,58,50,54,49,43,93,74,52,0.00,40.00,18,13,30,0.09
2013-7-8,70,59,49,56,50,39,99,74,48,0.00,40.00,21,10,40,0.09
2013-7-9,69,58,47,48,44,39,99,63,43,0.00,40.00,17,8,25,0.00
2013-7-10,84,69,56,47,36,-100,70,34,19,0.00,40.00,20,10,32,0.00
2013-7-11,76,68,62,44,39,33,46,34,25,0.00,40.00,29,18,52,0.00
2013-7-12,72,61,53,49,39,30,82,46,31,0.00,40.00,23,13,36,0.17
2013-7-13,62,56,50,50,42,34,89,59,45,0.00,40.00,20,14,34,0.07
2013-7-14,64,55,46,50,42,32,90,62,41,0.00,40.00,20,16,35,0.35
2013-7-15,81,70,55,50,40,32,73,37,18,0.00,40.00,25,12,38,0.35
2013-7-16,63,58,52,47,44,40,82,60,49,0.00,40.00,19,11,31,0.00
2013-7-17,71,59,50,67,54,47,100,87,63,0.00,40.00,23,16,59,0.17
2013-7-18,74,66,58,47,41,36,66,42,30,0.00,40.00,22,14,35,0.01
2013-7-19,77,70,60,43,38,30,47,31,22,0.00,40.00,14,8,22,0.00
2013-7-20,78,66,56,47,42,-100,60,43,32,0.00,40.00,15,6,21,0.00
2013-7-21,71,66,59,46,40,30,59,39,29,0.00,40.00,16,12,28,0.00
2013-7-22,76,66,57,46,39,30,64,40,20,0.00,40.00,19,13,37,0.00
2013-7-23,72,67,58,49,44,36,64,46,37,0.00,40.00,14,7,21,0.00
2013-7-24,81,70,55,51,44,41,86,43,26,0.00,40.00,27,10,41,0.04
2013-7-25,66,58,48,55,48,41,87,68,52,0.00,40.00,21,9,41,0.04
2013-7-26,70,56,45,50,43,38,83,63,47,0.00,40.00,21,16,34,0.00
2013-7-27,80,68,50,42,40,34,64,37,22,0.00,40.00,21,9,34,0.00
2013-7-28,69,56,49,49,46,40,98,70,42,0.00,40.00,22,9,27,0.00
2013-7-29,57,50,44,57,48,40,99,93,52,0.00,40.00,22,10,32,0.60
2013-7-30,60,54,50,51,48,44,97,81,67,0.00,40.00,21,6,30,0.03
2013-7-31,71,64,52,52,48,41,85,56,41,0.00,40.00,14,6,23,0.00
2013-8-1,66,57,48,51,44,38,99,65,44,0.00,40.00,20,14,34,0.25
2013-8-2,59,51,46,54,49,43,100,95,75,0.00,40.00,19,9,36,0.86
2013-8-3,61,54,48,53,49,39,99,82,64,0.00,40.00,19,8,39,1.25
2013-8-4,69,61,48,49,45,39,99,58,46,0.00,40.00,15,7,23,0.24
2013-8-5,68,63,52,48,42,35,64,47,33,0.00,40.00,31,16,54,0.00
2013-8-6,65,56,48,48,43,36,99,65,35,0.00,40.00,16,12,32,0.00
2013-8-7,68,61,51,53,46,37,88,61,41,0.00,40.00,13,8,25,0.00
2013-8-8,68,59,51,52,48,45,88,68,55,0.00,40.00,13,7,19,0.00
2013-8-9,65,56,50,48,45,40,76,66,54,0.00,40.00,14,12,28,0.00
2013-9-24,57,46,38,41,30,22,99,57,34,0.00,40.00,29,12,47,0.23
2013-9-25,39,36,32,39,36,32,99,99,99,0.00,40.00,18,10,31,0.51
2013-9-26,33,31,30,33,31,30,99,99,99,0.00,40.00,15,2,25,0.01
2013-9-27,41,33,28,38,30,24,99,87,56,0.00,40.00,23,8,36,0.35
2013-9-28,49,42,32,34,30,26,80,64,48,0.00,40.00,29,22,47,0.01
2013-9-29,52,45,38,34,28,23,76,51,40,0.00,40.00,36,26,65,0.01
2013-9-30,48,42,37,40,27,16,99,58,35,0.00,40.00,30,24,61,0.18
2013-12-26,40,35,30,27,22,16,65,58,51,0.00,40.00,37,26,64,0.00
2013-12-27,48,42,39,25,15,9,55,34,25,0.00,40.00,33,24,52,0.00
2013-12-28,39,9,-5,22,2,-11,86,73,28,0.00,40.00,27,14,50,0.00
2013-12-29,27,21,12,19,14,8,88,75,55,0.00,40.00,24,17,47,0.00
2013-12-30,32,26,20,25,20,17,92,79,57,0.00,40.00,24,16,40,0.00
2013-12-31,32,27,21,28,23,17,96,84,71,0.00,40.00,24,17,46,0.00
2014-1-1,23,19,20,20,1,-100,91,77,84,0.00,40.00,14,8,23,0.00
2014-1-2,37,31,22,25,20,14,72,64,57,0.00,40.00,35,25,53,0.00